Regional Weather Roundup
Issued by NWS Huntsville, AL

Home | Current Version | Previous Version | Text Only | Print | Product List | Glossary On
Versions: 1 2 3 4 5 6 7 8 9 10 11 12 13 14 15 16 17 18 19 20 21 22 23 24 25 26 27 28 29 30 31 32 33 34 35 36 37 38 39 40 41 42 43 44 45 46 47 48 49 50
000
ASUS44 KHUN 241010
RWRHUN

WEATHER ROUNDUP FOR THE TENNESSEE VALLEY
NATIONAL WEATHER SERVICE HUNTSVILLE AL
500 AM CDT WED AUG 24 2016

ALZ001>004-241100-
NORTHWEST ALABAMA

CITY           SKY/WX    TMP DP  RH WIND       PRES   REMARKS
SHOALS AIRPORT CLEAR     71  69  93 E3        30.18S FOG
SHOALS TVA RES   N/A     72 N/A N/A MISG        N/A
$$

ALZ005>007-016-241100-
NORTH CENTRAL ALABAMA

CITY           SKY/WX    TMP DP  RH WIND       PRES   REMARKS
DECATUR AP     CLEAR     70  70 100 CALM      30.19R FOG
HUNTSVILLE AP  CLEAR     74  67  78 CALM      30.19R
MERIDIANVILLE  CLEAR     68  63  83 CALM      30.20R
REDSTONE ARSN  CLEAR     71  70  96 CALM      30.18R
VINEMONT AP    FAIR      70  68  93 NE3       30.22R
$$

ALZ008>010-241100-
NORTHEAST ALABAMA

CITY           SKY/WX    TMP DP  RH WIND       PRES   REMARKS
ALBERTVILLE    CLEAR     72  72 100 SE3       30.20R
FORT PAYNE     CLEAR     72  66  83 CALM      30.21R
SCOTTSBORO AP  CLEAR     70  70 100 CALM      30.21S
SCOTTSBORO HCN   N/A     70 N/A N/A MISG        N/A
VALLEY HEAD      N/A     75 N/A N/A MISG        N/A
$$

TNZ076-096-097-241100-
SOUTHEASTERN MIDDLE TENNESSEE

CITY           SKY/WX    TMP DP  RH WIND       PRES   REMARKS
TULLAHOMA      CLEAR     68  66  94 CALM      30.22S
WINCHESTER     CLEAR     70  68  94 CALM      30.21S
$$

...SURROUNDING SITES...

CITY           SKY/WX    TMP DP  RH WIND       PRES   REMARKS
ATLANTA        PTCLDY    75  73  93 SE6       30.24R
ANNISTON       CLEAR     74  70  87 CALM      30.20S
BIRMINGHAM     CLEAR     75  71  87 CALM      30.20S
CHATTANOOGA    MOCLDY    73  69  87 CALM      30.22R
DALTON         PTCLDY    72  70  94 CALM      30.22S
GADSDEN        CLEAR     71  70  96 CALM      30.20S
GOLDEN TRNGL   CLEAR     73  68  83 CALM      30.14S
HALEYVILLE     FAIR      70  69  97 CALM      30.21R
JACKSON TN     CLEAR     74  73  97 CALM      30.16R
MEMPHIS        CLEAR     80  73  79 S8        30.14R
NASHVILLE      PTCLDY    72  68  87 CALM      30.19R
OXFORD MS      FAIR      72  72 100 CALM      30.17R
ROME           CLOUDY    73  70  90 CALM      30.21R
SAVANNAH       CLEAR     70  70 100 CALM      30.16R FOG
TUPELO         CLEAR     74  71  91 CALM      30.15R
TUSCALOOSA     CLEAR     74  74 100 CALM      30.16R
$$

...GULF COAST WEATHER...

CITY           SKY/WX    TMP DP  RH WIND       PRES   REMARKS
GULFPORT       PTCLDY    78  76  93 CALM      30.11R
PASCAGOULA     MOCLDY    76  76 100 CALM      30.12R
MOBILE         PTCLDY    78  75  90 CALM      30.13S
GULF SHORES    PTSUNNY   78  78 100 CALM      30.11S
PENSACOLA      PTCLDY    79  76  90 N3        30.11S FOG
DESTIN         PTCLDY    80  76  87 E5        30.13S
PANAMA CITY    CLEAR     76  74  92 E6        30.14R
APPALACHICOLA  CLOUDY    77  77 100 N5        30.12S
$$




USA.gov is the U.S. government's official web portal to all federal, state and local government web resources and services.